Graham, TX

6:25 AM CDT on April 23, 2017 (GMT -0500)
Graham

Weather History for KRPH - June, 2013

Change the Weather History Date:

Tuesday, June 11, 2013

  Actual Average (KMWL) Record (KMWL)
Temperature  
Mean Temperature 84 °F -  
Max Temperature 97 °F 87 °F 100 °F (2012)
Min Temperature 71 °F 67 °F 61 °F (2014)
Cooling Degree Days 18    
Growing Degree Days 34 (Base 50)    
Moisture  
Dew Point 61 °F    
Average Humidity 41    
Maximum Humidity 60    
Minimum Humidity 30    
Precipitation  
Precipitation 0.00 in - - ()
Sea Level Pressure  
Sea Level Pressure 29.94 in    
Wind  
Wind Speed 6 mph (SSE)    
Max Wind Speed 13 mph    
Max Gust Speed 21 mph    
Visibility 10 miles    
Events      
Averages and records for this station are not official NWS values.
T = Trace of Precipitation, MM = Missing Value Source: NWS Daily Summary

Daily Weather History Graph

Daily Weather History Graph

Search for Another Location

Airport or City:

Trip Planner

Search our weather history database for the weather conditions in past years. The results will help you decide how hot, cold, wet, or windy it might be!

Date:

Astronomy

Jun. 11, 2013 Rise Set
Actual Time 6:24 AM CDT 8:43 PM CDT
Civil Twilight 5:56 AM CDT 9:12 PM CDT
Nautical Twilight 5:20 AM CDT 9:47 PM CDT
Astronomical Twilight 4:42 AM CDT 10:25 PM CDT
Moon 9:03 AM CDT (6/11) 10:54 PM CDT (6/11)
Length of Visible Light 15h 15m
Length of Day
14h 18m
Waxing Crescent, 8% of the Moon is Illuminated
Jun 11
Waxing Crescent
Jun 16
First Quarter
Jun 23
Full
Jun 29
Last Quarter
Jul 8
New

Hourly Weather History & Observations

Time (CDT) Temp. Heat Index Dew Point Humidity Pressure Visibility Wind Dir Wind Speed Gust Speed Precip Events Conditions
12:15 AM 77.4 °F - 55.6 °F 47% 29.96 in 10.0 mi SE 4.6 mph - N/A   Clear
12:35 AM 76.6 °F - 55.6 °F 48% 29.96 in 10.0 mi Calm Calm - N/A   Clear
12:55 AM 75.7 °F - 56.7 °F 51% 29.96 in 10.0 mi Calm Calm - N/A   Clear
1:15 AM 76.1 °F - 55.0 °F 48% 29.96 in 10.0 mi Calm Calm - N/A   Clear
1:35 AM 73.4 °F - 57.0 °F 56% 29.96 in 10.0 mi Calm Calm - N/A   Clear
1:55 AM 72.0 °F - 56.5 °F 58% 29.96 in 10.0 mi Calm Calm - N/A   Clear
2:15 AM 72.3 °F - 56.5 °F 57% 29.95 in 10.0 mi Calm Calm - N/A   Clear
2:35 AM 71.8 °F - 57.2 °F 60% 29.95 in 10.0 mi Calm Calm - N/A   Clear
12:55 PM 91.8 °F 92.2 °F 62.4 °F 37% 29.99 in 10.0 mi SSW 11.5 mph 17.3 mph N/A   Scattered Clouds
1:15 PM 92.5 °F 93.3 °F 62.6 °F 37% 29.99 in 10.0 mi South 10.4 mph - N/A   Scattered Clouds
1:35 PM 93.9 °F 95.2 °F 63.0 °F 36% 29.98 in 10.0 mi SSE 10.4 mph 17.3 mph N/A   Clear
1:55 PM 93.2 °F 94.1 °F 62.8 °F 36% 29.98 in 10.0 mi South 11.5 mph 16.1 mph N/A   Scattered Clouds
2:15 PM 94.3 °F 94.9 °F 61.9 °F 34% 29.97 in 10.0 mi South 12.7 mph - N/A   Clear
2:35 PM 94.3 °F 94.9 °F 61.7 °F 34% 29.96 in 10.0 mi ESE 6.9 mph 18.4 mph N/A   Clear
2:55 PM 95.2 °F 95.5 °F 61.0 °F 32% 29.96 in 10.0 mi SSE 12.7 mph 17.3 mph N/A   Clear
3:15 PM 95.2 °F 95.5 °F 60.6 °F 32% 29.95 in 10.0 mi South 9.2 mph 17.3 mph N/A   Clear
3:35 PM 95.7 °F 95.9 °F 60.8 °F 31% 29.94 in 10.0 mi South 10.4 mph 16.1 mph N/A   Clear
3:55 PM 95.9 °F 96.1 °F 60.4 °F 31% 29.94 in 10.0 mi SSE 9.2 mph 17.3 mph N/A   Clear
4:15 PM 96.4 °F 97.0 °F 60.8 °F 31% 29.93 in 10.0 mi SSE 11.5 mph 18.4 mph N/A   Clear
4:35 PM 96.8 °F 97.1 °F 60.3 °F 30% 29.93 in 10.0 mi South 10.4 mph - N/A   Clear
4:55 PM 96.3 °F 96.7 °F 61.0 °F 31% 29.92 in 10.0 mi South 10.4 mph 19.6 mph N/A   Clear
5:15 PM 96.4 °F 97.0 °F 61.2 °F 31% 29.92 in 10.0 mi South 11.5 mph 19.6 mph N/A   Clear
5:35 PM 96.8 °F 97.5 °F 61.3 °F 31% 29.91 in 10.0 mi South 11.5 mph 17.3 mph N/A   Scattered Clouds
5:55 PM 96.1 °F 96.9 °F 61.9 °F 32% 29.91 in 10.0 mi South 8.1 mph 18.4 mph N/A   Scattered Clouds
6:15 PM 95.2 °F 95.5 °F 60.8 °F 32% 29.91 in 10.0 mi South 9.2 mph 20.7 mph N/A   Scattered Clouds
6:35 PM 94.5 °F 94.8 °F 61.0 °F 33% 29.90 in 10.0 mi South 11.5 mph 17.3 mph N/A   Clear
6:55 PM 94.1 °F 94.6 °F 61.7 °F 34% 29.90 in 10.0 mi South 10.4 mph 17.3 mph N/A   Clear
7:15 PM 93.4 °F 93.9 °F 61.7 °F 35% 29.90 in 10.0 mi South 10.4 mph 18.4 mph N/A   Clear
7:35 PM 92.5 °F 92.6 °F 61.5 °F 35% 29.90 in 10.0 mi SSE 10.4 mph 16.1 mph N/A   Clear
7:55 PM 91.4 °F 91.7 °F 61.7 °F 37% 29.90 in 10.0 mi South 9.2 mph - N/A   Clear
8:15 PM 90.5 °F 91.1 °F 62.2 °F 39% 29.90 in 10.0 mi SSE 5.8 mph - N/A   Clear
8:35 PM 88.5 °F 89.5 °F 63.5 °F 43% 29.90 in 10.0 mi SSE 4.6 mph - N/A   Clear
8:55 PM 86.9 °F 87.8 °F 63.5 °F 45% 29.90 in 10.0 mi SSE 4.6 mph - N/A   Clear
9:15 PM 85.5 °F 86.6 °F 63.5 °F 48% 29.91 in 10.0 mi SE 4.6 mph - N/A   Clear
9:35 PM 85.1 °F 86.1 °F 63.5 °F 48% 29.91 in 10.0 mi SE 4.6 mph - N/A   Clear
9:55 PM 85.3 °F 86.6 °F 63.9 °F 49% 29.92 in 10.0 mi SE 6.9 mph - N/A   Clear
10:15 PM 84.7 °F 86.3 °F 64.8 °F 51% 29.93 in 10.0 mi SE 6.9 mph - N/A   Clear
10:35 PM 84.9 °F 86.6 °F 65.1 °F 51% 29.93 in 10.0 mi SSE 8.1 mph - N/A   Clear
10:55 PM 84.7 °F 86.3 °F 64.9 °F 51% 29.93 in 10.0 mi SSE 6.9 mph - N/A   Clear
11:15 PM 84.2 °F 85.8 °F 64.9 °F 52% 29.94 in 10.0 mi SSE 9.2 mph - N/A   Clear
11:35 PM 83.8 °F 85.3 °F 64.8 °F 52% 29.94 in 10.0 mi SSE 9.2 mph - N/A   Clear
11:55 PM 83.3 °F 84.8 °F 64.8 °F 53% 29.94 in 10.0 mi SSE 8.1 mph - N/A   Clear